{"data":{"norad_id":57410,"intl_designator":"2023-102G","name":"STARLINK-30172","alt_names":[],"object_type":"PAYLOAD","status":"ACTIVE","operator":null,"country":"US","launch_date":"2023-07-20","launch_site_code":"AFWTR","launch_vehicle":null,"mission":null,"orbit_class":"UNKNOWN","rcs_meters":null,"size_class":null,"mass_kg":null,"dimensions":null,"purposes":["comms"],"wikipedia_slug":null,"has_3d_model":false,"image_url":null,"decayed_at":null,"tle_current":{"epoch":"2026-09-20T22:00:03.000096Z","epoch_age_seconds":91992,"freshness":"FRESH","line1":"1 57410U 23102G   26263.91670139  .00088911  00000+0  17971-2 0  9993","line2":"2 57410  42.9991 223.1857 0001463 258.6163 335.1043 15.45478135  5878","mean_motion":15.45478135,"eccentricity":0.0001463,"inclination_deg":42.9991,"raan_deg":223.1857,"arg_perigee_deg":258.6163,"mean_anomaly_deg":335.1043,"bstar":0.0017971,"rev_number":587,"period_min":93.175048380739,"perigee_km":428.97750272342,"apogee_km":430.96955586429,"semimajor_km":6808.1105292939,"source":"CELESTRAK","updated_at":"2026-09-21T09:00:33.623715Z"}}}